contact:dominique.lefevre@mio.osupytheas.fr, maurice.libes@osupytheas.fr, didier.mallarino@osupytheas.fr
Project:EMSO http://www.emso-fr.org/EMSO-France
Depth: 2436.0 m
Title:EMSO Ligure Ouest : Data MII capteur MICROCAT
DateTime_Computer,Latitude,Longitude,Temperature,Conductivity,Pressure,DateTime_Instrument
DateTime_Computer,Latitude,Longitude,degC,S m-1,dbar,DateTime_Instrument
2021-04-16T00:03:03Z,42.805,6.029,13.2993,4.60006,2470.357,2021-4-16T02:04:11Z
2021-04-16T00:06:06Z,42.805,6.029,13.2991,4.60003,2470.366,2021-4-16T02:07:14Z
2021-04-16T00:09:09Z,42.805,6.029,13.2993,4.60004,2470.357,2021-4-16T02:10:17Z
2021-04-16T00:12:12Z,42.805,6.029,13.2993,4.60005,2470.38,2021-4-16T02:13:21Z
2021-04-16T00:15:15Z,42.805,6.029,13.2996,4.60008,2470.357,2021-4-16T02:16:24Z
2021-04-16T00:18:18Z,42.805,6.029,13.2991,4.60000,2470.38,2021-4-16T02:19:27Z
2021-04-16T00:21:21Z,42.805,6.029,13.2994,4.60008,2470.32,2021-4-16T02:22:30Z
2021-04-16T00:24:24Z,42.805,6.029,13.2997,4.60007,2470.32,2021-4-16T02:25:33Z
2021-04-16T00:27:28Z,42.805,6.029,13.2995,4.60006,2470.334,2021-4-16T02:28:36Z
2021-04-16T00:30:31Z,42.805,6.029,13.2992,4.60002,2470.32,2021-4-16T02:31:39Z
2021-04-16T00:33:34Z,42.805,6.029,13.2994,4.60006,2470.334,2021-4-16T02:34:42Z
2021-04-16T00:36:37Z,42.805,6.029,13.2996,4.60006,2470.32,2021-4-16T02:37:46Z
2021-04-16T00:39:40Z,42.805,6.029,13.2990,4.60005,2470.297,2021-4-16T02:40:49Z
2021-04-16T00:42:43Z,42.805,6.029,13.2993,4.60005,2470.32,2021-4-16T02:43:52Z
2021-04-16T00:45:46Z,42.805,6.029,13.2998,4.60009,2470.297,2021-4-16T02:46:55Z
2021-04-16T00:48:49Z,42.805,6.029,13.2990,4.60008,2470.32,2021-4-16T02:49:58Z
2021-04-16T00:51:53Z,42.805,6.029,13.2995,4.60003,2470.32,2021-4-16T02:53:01Z
2021-04-16T00:54:56Z,42.805,6.029,13.2992,4.60005,2470.273,2021-4-16T02:56:04Z
2021-04-16T00:57:59Z,42.805,6.029,13.2992,4.60000,2470.273,2021-4-16T02:59:07Z
2021-04-16T01:01:02Z,42.805,6.029,13.2990,4.59999,2470.273,2021-4-16T03:02:11Z
2021-04-16T01:04:05Z,42.805,6.029,13.2993,4.60006,2470.25,2021-4-16T03:05:14Z
2021-04-16T01:07:08Z,42.805,6.029,13.2992,4.60001,2470.25,2021-4-16T03:08:17Z
2021-04-16T01:10:11Z,42.805,6.029,13.2991,4.60003,2470.273,2021-4-16T03:11:20Z
2021-04-16T01:13:14Z,42.805,6.029,13.2993,4.60003,2470.273,2021-4-16T03:14:23Z
2021-04-16T01:16:17Z,42.805,6.029,13.2992,4.60003,2470.24,2021-4-16T03:17:26Z
2021-04-16T01:19:21Z,42.805,6.029,13.2993,4.60006,2470.264,2021-4-16T03:20:29Z
2021-04-16T01:22:24Z,42.805,6.029,13.2991,4.60003,2470.227,2021-4-16T03:23:32Z
2021-04-16T01:25:27Z,42.805,6.029,13.2995,4.60008,2470.24,2021-4-16T03:26:36Z
2021-04-16T01:28:30Z,42.805,6.029,13.2995,4.60008,2470.25,2021-4-16T03:29:39Z
2021-04-16T01:31:33Z,42.805,6.029,13.2996,4.60002,2470.227,2021-4-16T03:32:42Z
2021-04-16T01:34:36Z,42.805,6.029,13.2995,4.60003,2470.227,2021-4-16T03:35:45Z
2021-04-16T01:37:39Z,42.805,6.029,13.2995,4.60004,2470.25,2021-4-16T03:38:48Z
2021-04-16T01:40:42Z,42.805,6.029,13.2993,4.60002,2470.227,2021-4-16T03:41:51Z
2021-04-16T01:43:46Z,42.805,6.029,13.2993,4.60005,2470.217,2021-4-16T03:44:54Z
2021-04-16T01:46:49Z,42.805,6.029,13.2993,4.60003,2470.217,2021-4-16T03:47:57Z
2021-04-16T01:49:52Z,42.805,6.029,13.2995,4.60010,2470.217,2021-4-16T03:51:01Z
2021-04-16T01:52:55Z,42.805,6.029,13.2995,4.60007,2470.18,2021-4-16T03:54:04Z
2021-04-16T01:55:58Z,42.805,6.029,13.2992,4.60001,2470.24,2021-4-16T03:57:07Z
2021-04-16T01:59:01Z,42.805,6.029,13.2996,4.60004,2470.217,2021-4-16T04:00:10Z
2021-04-16T02:02:04Z,42.805,6.029,13.2991,4.60003,2470.203,2021-4-16T04:03:13Z
2021-04-16T02:05:07Z,42.805,6.029,13.2990,4.60002,2470.227,2021-4-16T04:06:16Z
2021-04-16T02:08:11Z,42.805,6.029,13.2993,4.60006,2470.217,2021-4-16T04:09:19Z
2021-04-16T02:11:14Z,42.805,6.029,13.2993,4.60005,2470.217,2021-4-16T04:12:22Z
2021-04-16T02:14:17Z,42.805,6.029,13.2993,4.60003,2470.18,2021-4-16T04:15:26Z
2021-04-16T02:17:20Z,42.805,6.029,13.2988,4.60003,2470.203,2021-4-16T04:18:29Z
2021-04-16T02:20:23Z,42.805,6.029,13.2992,4.60002,2470.171,2021-4-16T04:21:32Z
2021-04-16T02:23:26Z,42.805,6.029,13.2991,4.60011,2470.203,2021-4-16T04:24:35Z
2021-04-16T02:26:29Z,42.805,6.029,13.2995,4.60013,2470.217,2021-4-16T04:27:38Z
2021-04-16T02:29:32Z,42.805,6.029,13.2993,4.60001,2470.203,2021-4-16T04:30:41Z
2021-04-16T02:32:36Z,42.805,6.029,13.2990,4.60003,2470.203,2021-4-16T04:33:44Z
2021-04-16T02:35:39Z,42.805,6.029,13.2993,4.60003,2470.18,2021-4-16T04:36:47Z
2021-04-16T02:38:42Z,42.805,6.029,13.2986,4.60002,2470.203,2021-4-16T04:39:50Z
2021-04-16T02:41:45Z,42.805,6.029,13.2988,4.60001,2470.203,2021-4-16T04:42:54Z
2021-04-16T02:44:48Z,42.805,6.029,13.2991,4.60004,2470.171,2021-4-16T04:45:57Z
2021-04-16T02:47:51Z,42.805,6.029,13.2990,4.60006,2470.18,2021-4-16T04:49:00Z
2021-04-16T02:50:54Z,42.805,6.029,13.2993,4.60008,2470.156,2021-4-16T04:52:03Z
2021-04-16T02:53:57Z,42.805,6.029,13.2990,4.60005,2470.203,2021-4-16T04:55:06Z
2021-04-16T02:57:01Z,42.805,6.029,13.2995,4.60008,2470.194,2021-4-16T04:58:09Z
2021-04-16T03:00:04Z,42.805,6.029,13.2994,4.60003,2470.194,2021-4-16T05:01:12Z
2021-04-16T03:03:07Z,42.805,6.029,13.2993,4.60000,2470.156,2021-4-16T05:04:15Z
2021-04-16T03:06:10Z,42.805,6.029,13.2989,4.60001,2470.147,2021-4-16T05:07:19Z
2021-04-16T03:09:13Z,42.805,6.029,13.2993,4.59999,2470.156,2021-4-16T05:10:22Z
2021-04-16T03:12:16Z,42.805,6.029,13.2993,4.60003,2470.124,2021-4-16T05:13:25Z
2021-04-16T03:15:19Z,42.805,6.029,13.2990,4.59998,2470.18,2021-4-16T05:16:28Z
2021-04-16T03:18:22Z,42.805,6.029,13.2991,4.59999,2470.133,2021-4-16T05:19:31Z
2021-04-16T03:21:26Z,42.805,6.029,13.2988,4.60001,2470.147,2021-4-16T05:22:34Z
2021-04-16T03:24:29Z,42.805,6.029,13.2991,4.60006,2470.133,2021-4-16T05:25:37Z
2021-04-16T03:27:32Z,42.805,6.029,13.2982,4.60001,2470.133,2021-4-16T05:28:40Z
2021-04-16T03:30:35Z,42.805,6.029,13.2990,4.60011,2470.133,2021-4-16T05:31:44Z
2021-04-16T03:33:38Z,42.805,6.029,13.2989,4.60000,2470.124,2021-4-16T05:34:47Z
2021-04-16T03:36:41Z,42.805,6.029,13.2990,4.60003,2470.147,2021-4-16T05:37:50Z
2021-04-16T03:39:44Z,42.805,6.029,13.2991,4.60001,2470.147,2021-4-16T05:40:53Z
2021-04-16T03:42:47Z,42.805,6.029,13.2991,4.60000,2470.124,2021-4-16T05:43:56Z
2021-04-16T03:45:51Z,42.805,6.029,13.2990,4.60002,2470.133,2021-4-16T05:46:59Z
2021-04-16T03:48:54Z,42.805,6.029,13.2990,4.60006,2470.133,2021-4-16T05:50:02Z
2021-04-16T03:51:57Z,42.805,6.029,13.2992,4.60009,2470.156,2021-4-16T05:53:05Z
2021-04-16T03:55:00Z,42.805,6.029,13.2994,4.60009,2470.171,2021-4-16T05:56:09Z
2021-04-16T03:58:03Z,42.805,6.029,13.2993,4.60005,2470.124,2021-4-16T05:59:12Z
2021-04-16T04:01:06Z,42.805,6.029,13.2996,4.60006,2470.11,2021-4-16T06:02:15Z
2021-04-16T04:04:09Z,42.805,6.029,13.2994,4.59999,2470.11,2021-4-16T06:05:18Z
2021-04-16T04:07:12Z,42.805,6.029,13.2993,4.60004,2470.087,2021-4-16T06:08:21Z
2021-04-16T04:10:16Z,42.805,6.029,13.2990,4.59999,2470.087,2021-4-16T06:11:24Z
2021-04-16T04:13:19Z,42.805,6.029,13.2993,4.59999,2470.124,2021-4-16T06:14:27Z
2021-04-16T04:16:22Z,42.805,6.029,13.2991,4.60005,2470.124,2021-4-16T06:17:30Z
2021-04-16T04:19:25Z,42.805,6.029,13.2991,4.59999,2470.1,2021-4-16T06:20:34Z
2021-04-16T04:22:28Z,42.805,6.029,13.2991,4.60003,2470.087,2021-4-16T06:23:37Z
2021-04-16T04:25:31Z,42.805,6.029,13.2987,4.60002,2470.1,2021-4-16T06:26:40Z
2021-04-16T04:28:34Z,42.805,6.029,13.2992,4.60001,2470.11,2021-4-16T06:29:43Z
2021-04-16T04:31:37Z,42.805,6.029,13.2996,4.60003,2470.063,2021-4-16T06:32:46Z
2021-04-16T04:34:41Z,42.805,6.029,13.2990,4.60003,2470.11,2021-4-16T06:35:49Z
2021-04-16T04:37:44Z,42.805,6.029,13.2991,4.59999,2470.11,2021-4-16T06:38:52Z
2021-04-16T04:40:47Z,42.805,6.029,13.2998,4.60008,2470.11,2021-4-16T06:41:55Z
2021-04-16T04:43:50Z,42.805,6.029,13.2991,4.60001,2470.1,2021-4-16T06:44:59Z
2021-04-16T04:46:53Z,42.805,6.029,13.2988,4.59996,2470.087,2021-4-16T06:48:02Z
2021-04-16T04:49:56Z,42.805,6.029,13.2991,4.60001,2470.077,2021-4-16T06:51:05Z
2021-04-16T04:52:59Z,42.805,6.029,13.2991,4.60001,2470.11,2021-4-16T06:54:08Z
2021-04-16T04:56:02Z,42.805,6.029,13.2991,4.60001,2470.063,2021-4-16T06:57:11Z
2021-04-16T04:59:06Z,42.805,6.029,13.2994,4.60001,2470.053,2021-4-16T07:00:14Z
2021-04-16T05:02:09Z,42.805,6.029,13.2988,4.60001,2470.087,2021-4-16T07:03:17Z
2021-04-16T05:05:12Z,42.805,6.029,13.2991,4.59999,2470.1,2021-4-16T07:06:20Z
2021-04-16T05:08:15Z,42.805,6.029,13.2989,4.59996,2470.087,2021-4-16T07:09:24Z
2021-04-16T05:11:18Z,42.805,6.029,13.2990,4.59999,2470.077,2021-4-16T07:12:27Z
2021-04-16T05:14:21Z,42.805,6.029,13.2988,4.59998,2470.063,2021-4-16T07:15:30Z
2021-04-16T05:17:24Z,42.805,6.029,13.2991,4.59999,2470.087,2021-4-16T07:18:33Z
2021-04-16T05:20:27Z,42.805,6.029,13.2997,4.60007,2470.063,2021-4-16T07:21:36Z
2021-04-16T05:23:30Z,42.805,6.029,13.2990,4.60011,2470.087,2021-4-16T07:24:39Z
2021-04-16T05:26:34Z,42.805,6.029,13.2994,4.60001,2470.1,2021-4-16T07:27:42Z
2021-04-16T05:29:37Z,42.805,6.029,13.2992,4.60001,2470.1,2021-4-16T07:30:45Z
2021-04-16T05:32:40Z,42.805,6.029,13.2991,4.60002,2470.063,2021-4-16T07:33:49Z
2021-04-16T05:35:43Z,42.805,6.029,13.2990,4.60002,2470.1,2021-4-16T07:36:52Z
2021-04-16T05:38:46Z,42.805,6.029,13.2992,4.60002,2470.11,2021-4-16T07:39:55Z
2021-04-16T05:41:49Z,42.805,6.029,13.2993,4.60000,2470.063,2021-4-16T07:42:58Z
2021-04-16T05:44:52Z,42.805,6.029,13.2992,4.60007,2470.11,2021-4-16T07:46:01Z
2021-04-16T05:47:55Z,42.805,6.029,13.2990,4.59998,2470.1,2021-4-16T07:49:04Z
2021-04-16T05:50:59Z,42.805,6.029,13.2990,4.59999,2470.087,2021-4-16T07:52:07Z
2021-04-16T05:54:02Z,42.805,6.029,13.2991,4.60009,2470.087,2021-4-16T07:55:10Z
2021-04-16T05:57:05Z,42.805,6.029,13.2991,4.60001,2470.087,2021-4-16T07:58:14Z
2021-04-16T06:00:08Z,42.805,6.029,13.2994,4.60003,2470.087,2021-4-16T08:01:17Z
2021-04-16T06:03:11Z,42.805,6.029,13.2998,4.60004,2470.1,2021-4-16T08:04:20Z
2021-04-16T06:06:14Z,42.805,6.029,13.2990,4.60001,2470.1,2021-4-16T08:07:23Z
2021-04-16T06:09:17Z,42.805,6.029,13.2993,4.60002,2470.087,2021-4-16T08:10:26Z
2021-04-16T06:12:20Z,42.805,6.029,13.2990,4.59999,2470.063,2021-4-16T08:13:29Z
2021-04-16T06:15:24Z,42.805,6.029,13.2989,4.60005,2470.077,2021-4-16T08:16:32Z
2021-04-16T06:18:27Z,42.805,6.029,13.2992,4.60000,2470.063,2021-4-16T08:19:35Z
2021-04-16T06:21:30Z,42.805,6.029,13.2991,4.59999,2470.077,2021-4-16T08:22:39Z
2021-04-16T06:24:33Z,42.805,6.029,13.2990,4.60001,2470.1,2021-4-16T08:25:42Z
2021-04-16T06:27:36Z,42.805,6.029,13.2991,4.59999,2470.063,2021-4-16T08:28:45Z
2021-04-16T06:30:39Z,42.805,6.029,13.2988,4.60003,2470.087,2021-4-16T08:31:48Z
2021-04-16T06:33:42Z,42.805,6.029,13.2990,4.59998,2470.1,2021-4-16T08:34:51Z
2021-04-16T06:36:45Z,42.805,6.029,13.2991,4.60005,2470.077,2021-4-16T08:37:54Z
2021-04-16T06:39:49Z,42.805,6.029,13.2992,4.60009,2470.077,2021-4-16T08:40:57Z
2021-04-16T06:42:52Z,42.805,6.029,13.2996,4.60003,2470.087,2021-4-16T08:44:00Z
2021-04-16T06:45:55Z,42.805,6.029,13.2995,4.60011,2470.1,2021-4-16T08:47:04Z
2021-04-16T06:48:58Z,42.805,6.029,13.2990,4.60006,2470.077,2021-4-16T08:50:07Z
2021-04-16T06:52:01Z,42.805,6.029,13.2991,4.60001,2470.063,2021-4-16T08:53:10Z
2021-04-16T06:55:04Z,42.805,6.029,13.2991,4.60002,2470.04,2021-4-16T08:56:13Z
2021-04-16T06:58:07Z,42.805,6.029,13.2987,4.60003,2470.087,2021-4-16T08:59:16Z
2021-04-16T07:01:10Z,42.805,6.029,13.2991,4.60002,2470.04,2021-4-16T09:02:19Z
2021-04-16T07:04:14Z,42.805,6.029,13.2991,4.60005,2470.063,2021-4-16T09:05:22Z
2021-04-16T07:07:17Z,42.805,6.029,13.2991,4.60002,2470.077,2021-4-16T09:08:25Z
2021-04-16T07:10:20Z,42.805,6.029,13.2986,4.60000,2470.087,2021-4-16T09:11:29Z
2021-04-16T07:13:23Z,42.805,6.029,13.2992,4.60001,2470.1,2021-4-16T09:14:32Z
2021-04-16T07:16:26Z,42.805,6.029,13.2994,4.60003,2470.049,2021-4-16T09:17:35Z
2021-04-16T07:19:29Z,42.805,6.029,13.2993,4.60005,2470.04,2021-4-16T09:20:38Z
2021-04-16T07:22:32Z,42.805,6.029,13.2992,4.60001,2470.04,2021-4-16T09:23:41Z
2021-04-16T07:25:35Z,42.805,6.029,13.2995,4.60001,2470.063,2021-4-16T09:26:44Z
2021-04-16T07:28:39Z,42.805,6.029,13.2989,4.59999,2470.077,2021-4-16T09:29:47Z
2021-04-16T07:31:42Z,42.805,6.029,13.2989,4.60004,2470.1,2021-4-16T09:32:50Z
2021-04-16T07:34:45Z,42.805,6.029,13.2990,4.60001,2470.077,2021-4-16T09:35:54Z
2021-04-16T07:37:48Z,42.805,6.029,13.2994,4.60006,2470.063,2021-4-16T09:38:57Z
2021-04-16T07:40:51Z,42.805,6.029,13.2990,4.60003,2470.04,2021-4-16T09:42:00Z
2021-04-16T07:43:54Z,42.805,6.029,13.2993,4.60001,2470.053,2021-4-16T09:45:03Z
2021-04-16T07:46:57Z,42.805,6.029,13.2991,4.60003,2470.063,2021-4-16T09:48:06Z
2021-04-16T07:50:00Z,42.805,6.029,13.2989,4.60002,2470.077,2021-4-16T09:51:09Z
2021-04-16T07:53:04Z,42.805,6.029,13.2990,4.60003,2470.077,2021-4-16T09:54:12Z
2021-04-16T07:56:07Z,42.805,6.029,13.2993,4.60006,2470.063,2021-4-16T09:57:15Z
2021-04-16T07:59:10Z,42.805,6.029,13.2986,4.60003,2470.053,2021-4-16T10:00:19Z
2021-04-16T08:02:13Z,42.805,6.029,13.2991,4.60003,2470.04,2021-4-16T10:03:22Z
2021-04-16T08:05:16Z,42.805,6.029,13.2991,4.60001,2470.04,2021-4-16T10:06:25Z
2021-04-16T08:08:19Z,42.805,6.029,13.2992,4.60003,2470.077,2021-4-16T10:09:28Z
2021-04-16T08:11:22Z,42.805,6.029,13.2992,4.60001,2470.063,2021-4-16T10:12:31Z
2021-04-16T08:14:25Z,42.805,6.029,13.2991,4.60009,2470.04,2021-4-16T10:15:34Z
2021-04-16T08:17:29Z,42.805,6.029,13.2989,4.60001,2470.017,2021-4-16T10:18:37Z
2021-04-16T08:20:32Z,42.805,6.029,13.2993,4.60000,2470.1,2021-4-16T10:21:40Z
2021-04-16T08:23:35Z,42.805,6.029,13.2991,4.60003,2470.063,2021-4-16T10:24:44Z
2021-04-16T08:26:38Z,42.805,6.029,13.2993,4.60009,2470.053,2021-4-16T10:27:47Z
2021-04-16T08:29:41Z,42.805,6.029,13.2990,4.60000,2470.053,2021-4-16T10:30:50Z
2021-04-16T08:32:44Z,42.805,6.029,13.2996,4.60004,2470.077,2021-4-16T10:33:53Z
2021-04-16T08:35:47Z,42.805,6.029,13.2988,4.60003,2470.04,2021-4-16T10:36:56Z
2021-04-16T08:38:50Z,42.805,6.029,13.2993,4.60005,2470.04,2021-4-16T10:39:59Z
2021-04-16T08:41:54Z,42.805,6.029,13.2990,4.60001,2470.04,2021-4-16T10:43:02Z
2021-04-16T08:44:57Z,42.805,6.029,13.2997,4.60005,2470.053,2021-4-16T10:46:05Z
2021-04-16T08:48:00Z,42.805,6.029,13.2988,4.59999,2470.077,2021-4-16T10:49:09Z
2021-04-16T08:51:03Z,42.805,6.029,13.2989,4.60002,2470.017,2021-4-16T10:52:12Z
2021-04-16T08:54:06Z,42.805,6.029,13.2993,4.60009,2470.04,2021-4-16T10:55:15Z
2021-04-16T08:57:09Z,42.805,6.029,13.2986,4.60002,2470.063,2021-4-16T10:58:18Z
2021-04-16T09:00:12Z,42.805,6.029,13.2988,4.60003,2470.053,2021-4-16T11:01:21Z
2021-04-16T09:03:15Z,42.805,6.029,13.2991,4.60000,2470.03,2021-4-16T11:04:24Z
2021-04-16T09:06:19Z,42.805,6.029,13.2992,4.59999,2470.087,2021-4-16T11:07:27Z
2021-04-16T09:09:22Z,42.805,6.029,13.2996,4.60010,2470.053,2021-4-16T11:10:30Z
2021-04-16T09:12:25Z,42.805,6.029,13.2991,4.60005,2470.03,2021-4-16T11:13:34Z
2021-04-16T09:15:28Z,42.805,6.029,13.2992,4.60002,2470.017,2021-4-16T11:16:37Z
2021-04-16T09:18:31Z,42.805,6.029,13.2991,4.59999,2469.97,2021-4-16T11:19:40Z
2021-04-16T09:21:34Z,42.805,6.029,13.2991,4.60003,2470.04,2021-4-16T11:22:43Z
2021-04-16T09:24:37Z,42.805,6.029,13.2993,4.60004,2470.04,2021-4-16T11:25:46Z
2021-04-16T09:27:41Z,42.805,6.029,13.2996,4.60006,2470.017,2021-4-16T11:28:49Z
2021-04-16T09:30:44Z,42.805,6.029,13.2990,4.60002,2470.053,2021-4-16T11:31:52Z
2021-04-16T09:33:47Z,42.805,6.029,13.2996,4.60003,2470.053,2021-4-16T11:34:55Z
2021-04-16T09:36:50Z,42.805,6.029,13.2993,4.60003,2469.984,2021-4-16T11:37:59Z
2021-04-16T09:39:53Z,42.805,6.029,13.2991,4.60003,2470.04,2021-4-16T11:41:02Z
2021-04-16T09:42:56Z,42.805,6.029,13.2991,4.60003,2470.017,2021-4-16T11:44:05Z
2021-04-16T09:45:59Z,42.805,6.029,13.2991,4.60003,2470.017,2021-4-16T11:47:08Z
2021-04-16T09:49:02Z,42.805,6.029,13.2988,4.60006,2470.053,2021-4-16T11:50:11Z
2021-04-16T09:52:06Z,42.805,6.029,13.2993,4.60004,2470.053,2021-4-16T11:53:14Z
2021-04-16T09:55:09Z,42.805,6.029,13.2993,4.60006,2470.053,2021-4-16T11:56:17Z
2021-04-16T09:58:12Z,42.805,6.029,13.2990,4.60006,2470.017,2021-4-16T11:59:20Z
2021-04-16T10:01:15Z,42.805,6.029,13.2995,4.60001,2469.984,2021-4-16T12:02:24Z
2021-04-16T10:04:18Z,42.805,6.029,13.2996,4.59999,2470.04,2021-4-16T12:05:27Z
2021-04-16T10:07:21Z,42.805,6.029,13.2993,4.60002,2470.017,2021-4-16T12:08:30Z
2021-04-16T10:10:24Z,42.805,6.029,13.2995,4.60006,2469.993,2021-4-16T12:11:33Z
2021-04-16T10:13:27Z,42.805,6.029,13.2995,4.60010,2470.017,2021-4-16T12:14:36Z
2021-04-16T10:16:31Z,42.805,6.029,13.2992,4.60003,2470.007,2021-4-16T12:17:39Z
2021-04-16T10:19:34Z,42.805,6.029,13.2993,4.60002,2470.017,2021-4-16T12:20:42Z
2021-04-16T10:22:37Z,42.805,6.029,13.2993,4.60005,2469.993,2021-4-16T12:23:45Z
2021-04-16T10:25:40Z,42.805,6.029,13.2993,4.60005,2470.007,2021-4-16T12:26:49Z
2021-04-16T10:28:43Z,42.805,6.029,13.2993,4.60001,2470.017,2021-4-16T12:29:52Z
2021-04-16T10:31:46Z,42.805,6.029,13.2996,4.60002,2470.017,2021-4-16T12:32:55Z
2021-04-16T10:34:49Z,42.805,6.029,13.2995,4.60006,2470.007,2021-4-16T12:35:58Z
2021-04-16T10:37:52Z,42.805,6.029,13.2996,4.60004,2469.993,2021-4-16T12:39:01Z
2021-04-16T10:40:56Z,42.805,6.029,13.2990,4.60005,2469.993,2021-4-16T12:42:04Z
2021-04-16T10:43:59Z,42.805,6.029,13.2992,4.60001,2469.984,2021-4-16T12:45:07Z
2021-04-16T10:47:02Z,42.805,6.029,13.2992,4.60004,2469.97,2021-4-16T12:48:10Z
2021-04-16T10:50:05Z,42.805,6.029,13.2991,4.60004,2469.97,2021-4-16T12:51:14Z
2021-04-16T10:53:08Z,42.805,6.029,13.2990,4.60003,2470.003,2021-4-16T12:54:17Z
2021-04-16T10:56:11Z,42.805,6.029,13.2995,4.60004,2469.97,2021-4-16T12:57:20Z
2021-04-16T10:59:14Z,42.805,6.029,13.2995,4.60009,2469.984,2021-4-16T13:00:23Z
2021-04-16T11:02:17Z,42.805,6.029,13.2995,4.60003,2469.984,2021-4-16T13:03:26Z
2021-04-16T11:05:21Z,42.805,6.029,13.2995,4.60006,2469.993,2021-4-16T13:06:29Z
2021-04-16T11:08:24Z,42.805,6.029,13.2990,4.60002,2469.97,2021-4-16T13:09:32Z
2021-04-16T11:11:27Z,42.805,6.029,13.2996,4.60003,2469.984,2021-4-16T13:12:36Z
2021-04-16T11:14:30Z,42.805,6.029,13.2996,4.60002,2469.984,2021-4-16T13:15:39Z
2021-04-16T11:17:33Z,42.805,6.029,13.2997,4.60004,2469.947,2021-4-16T13:18:42Z
2021-04-16T11:20:36Z,42.805,6.029,13.2997,4.60007,2469.947,2021-4-16T13:21:45Z
2021-04-16T11:23:39Z,42.805,6.029,13.2993,4.60003,2469.947,2021-4-16T13:24:48Z
2021-04-16T11:26:42Z,42.805,6.029,13.2996,4.60001,2469.997,2021-4-16T13:27:51Z
2021-04-16T11:29:46Z,42.805,6.029,13.2995,4.60007,2469.96,2021-4-16T13:30:54Z
2021-04-16T11:32:49Z,42.805,6.029,13.2993,4.60003,2469.947,2021-4-16T13:33:57Z
2021-04-16T11:35:52Z,42.805,6.029,13.2991,4.60003,2469.923,2021-4-16T13:37:01Z
2021-04-16T11:38:55Z,42.805,6.029,13.2995,4.60003,2469.923,2021-4-16T13:40:04Z
2021-04-16T11:41:58Z,42.805,6.029,13.2993,4.60002,2469.937,2021-4-16T13:43:07Z
2021-04-16T11:45:01Z,42.805,6.029,13.2994,4.60006,2469.937,2021-4-16T13:46:10Z
2021-04-16T11:48:04Z,42.805,6.029,13.2996,4.60001,2469.923,2021-4-16T13:49:13Z
2021-04-16T11:51:07Z,42.805,6.029,13.2995,4.60003,2469.923,2021-4-16T13:52:16Z
2021-04-16T11:54:11Z,42.805,6.029,13.2994,4.60003,2469.96,2021-4-16T13:55:19Z
2021-04-16T11:57:14Z,42.805,6.029,13.2991,4.60004,2469.89,2021-4-16T13:58:22Z
2021-04-16T12:00:17Z,42.805,6.029,13.2993,4.60003,2469.923,2021-4-16T14:01:26Z
2021-04-16T12:03:20Z,42.805,6.029,13.2996,4.60006,2469.9,2021-4-16T14:04:29Z
2021-04-16T12:06:23Z,42.805,6.029,13.2996,4.60005,2469.9,2021-4-16T14:07:32Z
2021-04-16T12:09:26Z,42.805,6.029,13.2996,4.60003,2469.876,2021-4-16T14:10:35Z
2021-04-16T12:12:29Z,42.805,6.029,13.2992,4.60004,2469.937,2021-4-16T14:13:38Z
2021-04-16T12:15:32Z,42.805,6.029,13.2995,4.60004,2469.914,2021-4-16T14:16:41Z
2021-04-16T12:18:36Z,42.805,6.029,13.2998,4.60006,2469.89,2021-4-16T14:19:44Z
2021-04-16T12:21:39Z,42.805,6.029,13.2998,4.60006,2469.876,2021-4-16T14:22:47Z
2021-04-16T12:24:42Z,42.805,6.029,13.2994,4.60003,2469.9,2021-4-16T14:25:51Z
2021-04-16T12:27:45Z,42.805,6.029,13.2995,4.60004,2469.89,2021-4-16T14:28:54Z
2021-04-16T12:30:48Z,42.805,6.029,13.2996,4.60002,2469.914,2021-4-16T14:31:57Z
2021-04-16T12:33:51Z,42.805,6.029,13.2998,4.60005,2469.9,2021-4-16T14:35:00Z
2021-04-16T12:36:54Z,42.805,6.029,13.2993,4.60003,2469.89,2021-4-16T14:38:03Z
2021-04-16T12:39:58Z,42.805,6.029,13.2996,4.60005,2469.853,2021-4-16T14:41:06Z
2021-04-16T12:43:01Z,42.805,6.029,13.2999,4.60004,2469.89,2021-4-16T14:44:09Z
2021-04-16T12:46:04Z,42.805,6.029,13.2998,4.60005,2469.853,2021-4-16T14:47:12Z
2021-04-16T12:49:07Z,42.805,6.029,13.2996,4.60003,2469.853,2021-4-16T14:50:16Z
2021-04-16T12:52:10Z,42.805,6.029,13.2998,4.60003,2469.876,2021-4-16T14:53:19Z
2021-04-16T12:55:13Z,42.805,6.029,13.2993,4.60002,2469.914,2021-4-16T14:56:22Z
2021-04-16T12:58:16Z,42.805,6.029,13.2996,4.60004,2469.853,2021-4-16T14:59:25Z
2021-04-16T13:01:19Z,42.805,6.029,13.2996,4.60003,2469.876,2021-4-16T15:02:28Z
2021-04-16T13:04:23Z,42.805,6.029,13.2996,4.60002,2469.839,2021-4-16T15:05:31Z
2021-04-16T13:07:26Z,42.805,6.029,13.2998,4.60002,2469.83,2021-4-16T15:08:34Z
2021-04-16T13:10:29Z,42.805,6.029,13.2996,4.60001,2469.853,2021-4-16T15:11:38Z
2021-04-16T13:13:32Z,42.805,6.029,13.2993,4.60003,2469.867,2021-4-16T15:14:41Z
2021-04-16T13:16:35Z,42.805,6.029,13.2996,4.60001,2469.844,2021-4-16T15:17:44Z
2021-04-16T13:19:38Z,42.805,6.029,13.2997,4.60006,2469.844,2021-4-16T15:20:47Z
2021-04-16T13:22:41Z,42.805,6.029,13.2993,4.60001,2469.853,2021-4-16T15:23:50Z
2021-04-16T13:25:44Z,42.805,6.029,13.2993,4.60002,2469.853,2021-4-16T15:26:53Z
2021-04-16T13:28:48Z,42.805,6.029,13.2993,4.60003,2469.83,2021-4-16T15:29:56Z
2021-04-16T13:31:51Z,42.805,6.029,13.2995,4.60005,2469.806,2021-4-16T15:32:59Z
2021-04-16T13:34:54Z,42.805,6.029,13.2996,4.60000,2469.83,2021-4-16T15:36:03Z
2021-04-16T13:37:57Z,42.805,6.029,13.2995,4.60002,2469.806,2021-4-16T15:39:06Z
2021-04-16T13:41:00Z,42.805,6.029,13.2996,4.60002,2469.853,2021-4-16T15:42:09Z
2021-04-16T13:44:03Z,42.805,6.029,13.2997,4.60003,2469.867,2021-4-16T15:45:12Z
2021-04-16T13:47:06Z,42.805,6.029,13.2994,4.60003,2469.853,2021-4-16T15:48:15Z
2021-04-16T13:50:10Z,42.805,6.029,13.2994,4.60001,2469.844,2021-4-16T15:51:18Z
2021-04-16T13:53:13Z,42.805,6.029,13.2993,4.60001,2469.853,2021-4-16T15:54:21Z
2021-04-16T13:56:16Z,42.805,6.029,13.2992,4.60004,2469.83,2021-4-16T15:57:24Z
2021-04-16T13:59:19Z,42.805,6.029,13.2994,4.60004,2469.844,2021-4-16T16:00:28Z
2021-04-16T14:02:22Z,42.805,6.029,13.2992,4.60004,2469.83,2021-4-16T16:03:31Z
2021-04-16T14:05:25Z,42.805,6.029,13.2996,4.60006,2469.844,2021-4-16T16:06:34Z
2021-04-16T14:08:28Z,42.805,6.029,13.2996,4.60002,2469.83,2021-4-16T16:09:37Z
2021-04-16T14:11:31Z,42.805,6.029,13.2997,4.60003,2469.83,2021-4-16T16:12:40Z
2021-04-16T14:14:35Z,42.805,6.029,13.2993,4.60005,2469.806,2021-4-16T16:15:43Z
2021-04-16T14:17:38Z,42.805,6.029,13.2997,4.60003,2469.806,2021-4-16T16:18:46Z
2021-04-16T14:20:41Z,42.805,6.029,13.2993,4.60002,2469.769,2021-4-16T16:21:49Z
2021-04-16T14:23:44Z,42.805,6.029,13.2993,4.60003,2469.821,2021-4-16T16:24:53Z
2021-04-16T14:26:47Z,42.805,6.029,13.2994,4.60001,2469.844,2021-4-16T16:27:56Z
2021-04-16T14:29:50Z,42.805,6.029,13.2993,4.60003,2469.821,2021-4-16T16:30:59Z
2021-04-16T14:32:53Z,42.805,6.029,13.2992,4.60004,2469.867,2021-4-16T16:34:02Z
2021-04-16T14:35:56Z,42.805,6.029,13.2996,4.60006,2469.806,2021-4-16T16:37:05Z
2021-04-16T14:39:00Z,42.805,6.029,13.2995,4.60003,2469.844,2021-4-16T16:40:08Z
2021-04-16T14:42:03Z,42.805,6.029,13.2991,4.60002,2469.783,2021-4-16T16:43:11Z
2021-04-16T14:45:06Z,42.805,6.029,13.2995,4.60007,2469.806,2021-4-16T16:46:14Z
2021-04-16T14:48:09Z,42.805,6.029,13.2996,4.60006,2469.806,2021-4-16T16:49:18Z
2021-04-16T14:51:12Z,42.805,6.029,13.2995,4.60006,2469.821,2021-4-16T16:52:21Z
2021-04-16T14:54:15Z,42.805,6.029,13.2997,4.60000,2469.806,2021-4-16T16:55:24Z
2021-04-16T14:57:18Z,42.805,6.029,13.2992,4.60004,2469.83,2021-4-16T16:58:27Z
2021-04-16T15:00:21Z,42.805,6.029,13.2993,4.60003,2469.844,2021-4-16T17:01:30Z
2021-04-16T15:03:25Z,42.805,6.029,13.2995,4.60003,2469.821,2021-4-16T17:04:33Z
2021-04-16T15:06:28Z,42.805,6.029,13.2998,4.60004,2469.821,2021-4-16T17:07:36Z
2021-04-16T15:09:31Z,42.805,6.029,13.2990,4.60001,2469.769,2021-4-16T17:10:40Z
2021-04-16T15:12:34Z,42.805,6.029,13.2995,4.60005,2469.76,2021-4-16T17:13:43Z
2021-04-16T15:15:37Z,42.805,6.029,13.2998,4.60009,2469.806,2021-4-16T17:16:46Z